Zurück zum Katalog

STARLINK-36935

AktivKommunikationSSO
NORAD 68032·PAYLOAD·🇺🇸 United States

Gestartet Mar 1, 2026 von Vandenberg Space Force Base

Loading…

Nächste Überflüge (nächste 24 Stunden)

TLE

AktuellSource: CelesTrak SupGP

Epoche: Sep 15, 2026, 03:06 UTC

1 68032C 26040T   26258.12965278  .00033233  00000+0  10326-2 0  2589
2 68032  97.2853 205.6056 0001474  94.6638  91.0625 15.33392342    10

Verfolge STARLINK-36935 in Echtzeit mit AllMySat

Download on the App Store